Duncan, OK

3:59 AM CST on December 11, 2017 (GMT -0600)
Halliburton

Weather History for KDUC - December, 2012

Change the Weather History Date:

Sunday, December 30, 2012

  Actual Average (KLAW) Record (KLAW)
Temperature  
Mean Temperature 35 °F -  
Max Temperature 42 °F 48 °F 74 °F (1965)
Min Temperature 28 °F 27 °F 4 °F (1983)
Degree Days  
Heating Degree Days 30    
Moisture  
Dew Point 28 °F    
Average Humidity 67    
Maximum Humidity 93    
Minimum Humidity 42    
Precipitation  
Precipitation 0.02 in - - ()
Sea Level Pressure  
Sea Level Pressure 30.26 in    
Wind  
Wind Speed 11 mph (SSE)    
Max Wind Speed 16 mph    
Max Gust Speed 21 mph    
Visibility 10 miles    
Events      
Averages and records for this station are not official NWS values.
T = Trace of Precipitation, MM = Missing Value Source: NWS Daily Summary

Daily Weather History Graph

Daily Weather History Graph

Search for Another Location

Airport or City:

Trip Planner

Search our weather history database for the weather conditions in past years. The results will help you decide how hot, cold, wet, or windy it might be!

Date:

Astronomy

Dec. 30, 2012 Rise Set
Actual Time 7:38 AM CST 5:31 PM CST
Civil Twilight 7:10 AM CST 5:59 PM CST
Nautical Twilight 6:38 AM CST 6:30 PM CST
Astronomical Twilight 6:08 AM CST 7:01 PM CST
Moon 7:57 PM CST (12/30) 8:53 AM CST (12/30)
Length of Visible Light 10h 48m
Length of Day
9h 53m
Waning Gibbous, 95% of the Moon is Illuminated
Dec 30
Waning Gibbous
Jan 4
Last Quarter
Jan 11
New
Jan 18
First Quarter
Jan 26
Full

Hourly Weather History & Observations

Time (CST) Temp. Windchill Dew Point Humidity Pressure Visibility Wind Dir Wind Speed Gust Speed Precip Events Conditions
7:35 AM 28.4 °F 21.2 °F 24.8 °F 86% 30.36 in 10.0 mi ESE 6.9 mph - N/A   Clear
7:55 AM 28.4 °F 21.2 °F 24.8 °F 86% 30.36 in 10.0 mi ESE 6.9 mph - N/A   Clear
8:15 AM 28.4 °F 22.2 °F 26.6 °F 93% 30.36 in 10.0 mi SE 5.8 mph - N/A   Clear
8:55 AM 32.0 °F 26.4 °F 28.4 °F 87% 30.37 in 10.0 mi SSE 5.8 mph - N/A   Clear
9:15 AM 32.0 °F 24.8 °F 28.4 °F 87% 30.37 in 10.0 mi South 8.1 mph - N/A   Clear
9:35 AM 32.0 °F 23.6 °F 28.4 °F 87% 30.37 in 10.0 mi South 10.4 mph - N/A   Clear
9:55 AM 33.8 °F 25.8 °F 28.4 °F 81% 30.38 in 10.0 mi South 10.4 mph - N/A   Clear
10:15 AM 33.8 °F 25.3 °F 28.4 °F 81% 30.39 in 10.0 mi South 11.5 mph - N/A   Clear
10:35 AM 33.8 °F 24.8 °F 28.4 °F 81% 30.39 in 10.0 mi South 12.7 mph - N/A   Clear
10:55 AM 35.6 °F 27.1 °F 28.4 °F 75% 30.38 in 10.0 mi South 12.7 mph - N/A   Clear
11:15 AM 35.6 °F 27.5 °F 28.4 °F 75% 30.37 in 10.0 mi South 11.5 mph - N/A   Clear
11:35 AM 37.4 °F 28.2 °F 28.4 °F 70% 30.36 in 10.0 mi South 16.1 mph - N/A   Clear
11:55 AM 37.4 °F 29.3 °F 28.4 °F 70% 30.34 in 10.0 mi South 12.7 mph - N/A   Clear
12:15 PM 39.2 °F 31.6 °F 28.4 °F 65% 30.32 in 10.0 mi South 12.7 mph - N/A   Clear
12:35 PM 41.0 °F 33.1 °F 28.4 °F 61% 30.30 in 10.0 mi South 15.0 mph 18.4 mph N/A   Clear
12:55 PM 41.0 °F 34.3 °F 28.4 °F 61% 30.29 in 10.0 mi South 11.5 mph - N/A   Clear
1:15 PM 42.8 °F 35.4 °F 24.8 °F 49% 30.29 in 10.0 mi South 15.0 mph - N/A   Clear
1:35 PM 42.8 °F 35.1 °F 23.0 °F 46% 30.27 in 10.0 mi South 16.1 mph - N/A   Clear
1:55 PM 42.8 °F 35.1 °F 23.0 °F 46% 30.26 in 10.0 mi South 16.1 mph - N/A   Clear
2:15 PM 42.8 °F 35.8 °F 23.0 °F 46% 30.24 in 10.0 mi South 13.8 mph - N/A   Clear
2:35 PM 42.8 °F 35.8 °F 23.0 °F 46% 30.24 in 10.0 mi SSE 13.8 mph - N/A   Clear
2:55 PM 42.8 °F 35.4 °F 21.2 °F 42% 30.23 in 10.0 mi South 15.0 mph - N/A   Clear
3:15 PM 42.8 °F 35.4 °F 23.0 °F 46% 30.23 in 10.0 mi SSE 15.0 mph - N/A   Clear
3:35 PM 42.8 °F 36.2 °F 23.0 °F 46% 30.22 in 10.0 mi SSE 12.7 mph - N/A   Clear
3:55 PM 42.8 °F 36.2 °F 24.8 °F 49% 30.22 in 10.0 mi SSE 12.7 mph 18.4 mph N/A   Clear
4:15 PM 42.8 °F 35.8 °F 24.8 °F 49% 30.20 in 10.0 mi SSE 13.8 mph - N/A   Clear
4:35 PM 42.8 °F 37.5 °F 26.6 °F 53% 30.20 in 10.0 mi SSE 9.2 mph - N/A   Clear
4:55 PM 42.8 °F 38.0 °F 26.6 °F 53% 30.21 in 10.0 mi SE 8.1 mph - N/A   Clear
5:15 PM 41.0 °F 34.7 °F 26.6 °F 57% 30.19 in 10.0 mi SE 10.4 mph - N/A   Clear
5:35 PM 41.0 °F 35.2 °F 26.6 °F 57% 30.18 in 10.0 mi SE 9.2 mph 16.1 mph N/A   Clear
5:55 PM 41.0 °F 34.7 °F 26.6 °F 57% 30.18 in 10.0 mi SE 10.4 mph - N/A   Clear
6:15 PM 41.0 °F 34.7 °F 24.8 °F 53% 30.18 in 10.0 mi SE 10.4 mph - N/A   Clear
6:35 PM 41.0 °F 35.8 °F 24.8 °F 53% 30.19 in 10.0 mi SE 8.1 mph - N/A   Clear
6:55 PM 41.0 °F 34.3 °F 26.6 °F 57% 30.20 in 10.0 mi SSE 11.5 mph - N/A   Mostly Cloudy
7:15 PM 41.0 °F 34.3 °F 26.6 °F 57% 30.20 in 10.0 mi SSE 11.5 mph 17.3 mph N/A   Overcast
7:35 PM 41.0 °F 34.7 °F 26.6 °F 57% 30.21 in 10.0 mi SSE 10.4 mph - N/A   Overcast
7:55 PM 41.0 °F 33.9 °F 26.6 °F 57% 30.20 in 10.0 mi SSE 12.7 mph - N/A   Overcast
8:15 PM 39.2 °F 32.5 °F 28.4 °F 65% 30.18 in 10.0 mi SSE 10.4 mph - N/A   Overcast
8:35 PM 41.0 °F 33.5 °F 28.4 °F 61% 30.19 in 10.0 mi SSE 13.8 mph - N/A   Overcast
8:55 PM 41.0 °F 33.9 °F 30.2 °F 65% 30.20 in 10.0 mi SSE 12.7 mph - N/A   Overcast
9:15 PM 39.2 °F 32.0 °F 32.0 °F 75% 30.20 in 10.0 mi SSE 11.5 mph 17.3 mph N/A   Overcast
9:35 PM 39.2 °F 31.2 °F 32.0 °F 75% 30.19 in 10.0 mi SSE 13.8 mph 20.7 mph N/A   Overcast
9:55 PM 37.4 °F 29.3 °F 32.0 °F 81% 30.19 in 10.0 mi SSE 12.7 mph - N/A   Overcast
10:15 PM 37.4 °F 28.5 °F 32.0 °F 81% 30.18 in 10.0 mi SSE 15.0 mph 20.7 mph N/A   Overcast
10:35 PM 37.4 °F 28.5 °F 32.0 °F 81% 30.19 in 10.0 mi SSE 15.0 mph 18.4 mph N/A   Overcast
10:55 PM 37.4 °F 29.3 °F 32.0 °F 81% 30.20 in 10.0 mi South 12.7 mph - N/A   Overcast
11:15 PM 37.4 °F 29.3 °F 33.8 °F 87% 30.19 in 10.0 mi SSE 12.7 mph - N/A   Overcast
11:35 PM 35.6 °F 26.6 °F 33.8 °F 93% 30.18 in 10.0 mi SSE 13.8 mph 18.4 mph N/A   Overcast
11:55 PM 35.6 °F 27.5 °F 33.8 °F 93% 30.18 in 10.0 mi SSE 11.5 mph - 0.02 in   Overcast